When you browse on this site, cookies collect data to enhance your experience and personalize the content and advertising you see.
Visit our Privacy Policy to learn more. By continuing to use the site, you agree to this use of cookies and data.
  • în România
  • Lista ţărilor
  • Pe 7 zile
  • Temperatura apei
  • Hartă satelitară
  • Meteo pe hartă
  • Widget-uri
  • user-avatar
    Intrare

    Meteo pe oră la Serchhip

    Astăzi, 17 Februarie, Duminică

    Timp Temperatura Precipitaţii Vânt Presiune Umiditate
    00:00 +11°C° 0 mm 0 m/s 681 mmHg 89%
    01:00 +10°C° 0 mm 0 m/s 680 mmHg 88%
    02:00 +10°C° 0 mm 0 m/s 680 mmHg 87%
    03:00 +11°C° 0 mm 1 m/s 680 mmHg 86%
    04:00 +11°C° 0 mm 1 m/s 680 mmHg 85%
    05:00 +11°C° 0 mm 1 m/s 680 mmHg 84%
    06:00 +10°C° 0 mm 1 m/s 680 mmHg 85%
    07:00 +13°C° 0 mm 1 m/s 681 mmHg 72%
    08:00 +18°C° 0 mm 1 m/s 682 mmHg 59%
    09:00 +21°C° 0 mm 1 m/s 683 mmHg 46%
    10:00 +21°C° 0.1 mm 2 m/s 683 mmHg 45%
    11:00 +23°C° 0.1 mm 2 m/s 683 mmHg 44%
    12:00 +21°C° 0 mm 2 m/s 682 mmHg 46%
    13:00 +22°C° 0.1 mm 3 m/s 682 mmHg 44%
    14:00 +24°C° 0.1 mm 3 m/s 681 mmHg 41%
    15:00 +24°C° 0.1 mm 3 m/s 681 mmHg 39%
    16:00 +21°C° 0 mm 3 m/s 681 mmHg 48%
    17:00 +19°C° 0 mm 2 m/s 680 mmHg 57%
    18:00 +18°C° 0 mm 1 m/s 680 mmHg 66%
    19:00 +16°C° 0.3 mm 1 m/s 680 mmHg 76%
    20:00 +14°C° 0.3 mm 1 m/s 680 mmHg 85%
    21:00 +12°C° 0.3 mm 0 m/s 681 mmHg 95%
    22:00 +12°C° 0.3 mm 0 m/s 680 mmHg 96%
    23:00 +13°C° 0.3 mm 1 m/s 680 mmHg 96%

    Mâine, 18 Februarie, Luni

    Timp Temperatura Precipitaţii Vânt Presiune Umiditate
    00:00 +12°C° 0.3 mm 1 m/s 680 mmHg 97%
    01:00 +12°C° 0.1 mm 1 m/s 680 mmHg 97%
    02:00 +12°C° 0.1 mm 1 m/s 680 mmHg 97%
    03:00 +12°C° 0.1 mm 1 m/s 680 mmHg 97%
    04:00 +11°C° 0 mm 1 m/s 680 mmHg 97%
    05:00 +11°C° 0 mm 1 m/s 680 mmHg 98%
    06:00 +10°C° 0 mm 1 m/s 680 mmHg 98%
    07:00 +13°C° 0 mm 1 m/s 681 mmHg 90%
    08:00 +15°C° 0 mm 1 m/s 682 mmHg 83%
    09:00 +18°C° 0 mm 1 m/s 683 mmHg 75%
    10:00 +20°C° 0 mm 1 m/s 683 mmHg 63%
    11:00 +21°C° 0 mm 2 m/s 683 mmHg 50%
    12:00 +24°C° 0 mm 2 m/s 683 mmHg 38%
    13:00 +24°C° 0 mm 2 m/s 682 mmHg 38%
    14:00 +24°C° 0 mm 2 m/s 681 mmHg 39%
    15:00 +24°C° 0 mm 2 m/s 681 mmHg 39%
    16:00 +21°C° 0 mm 2 m/s 681 mmHg 48%
    17:00 +20°C° 0 mm 1 m/s 680 mmHg 56%
    18:00 +18°C° 0 mm 1 m/s 680 mmHg 65%
    19:00 +15°C° 0 mm 1 m/s 681 mmHg 71%
    20:00 +13°C° 0 mm 0 m/s 681 mmHg 76%
    21:00 +12°C° 0 mm 0 m/s 681 mmHg 82%
    22:00 +11°C° 0 mm 0 m/s 681 mmHg 85%
    23:00 +11°C° 0 mm 0 m/s 681 mmHg 87%

    Poimâine, 19 Februarie, Marţi

    Timp Temperatura Precipitaţii Vânt Presiune Umiditate
    00:00 +11°C° 0 mm 1 m/s 681 mmHg 90%
    01:00 +11°C° 0 mm 1 m/s 681 mmHg 91%
    02:00 +11°C° 0 mm 1 m/s 681 mmHg 92%
    03:00 +10°C° 0 mm 1 m/s 680 mmHg 94%
    04:00 +10°C° 0 mm 1 m/s 681 mmHg 94%
    05:00 +10°C° 0 mm 1 m/s 681 mmHg 94%
    06:00 +10°C° 0 mm 1 m/s 681 mmHg 94%
    07:00 +13°C° 0 mm 1 m/s 682 mmHg 79%
    08:00 +18°C° 0 mm 1 m/s 684 mmHg 64%
    09:00 +19°C° 0 mm 0 m/s 685 mmHg 50%
    10:00 +23°C° 0 mm 1 m/s 685 mmHg 43%
    11:00 +24°C° 0 mm 1 m/s 685 mmHg 36%
    12:00 +26°C° 0 mm 2 m/s 685 mmHg 29%
    13:00 +26°C° 0 mm 2 m/s 684 mmHg 30%
    14:00 +26°C° 0 mm 2 m/s 683 mmHg 31%
    15:00 +26°C° 0 mm 2 m/s 683 mmHg 32%
    16:00 +23°C° 0 mm 2 m/s 683 mmHg 41%
    17:00 +21°C° 0 mm 1 m/s 683 mmHg 50%
    18:00 +16°C° 0 mm 0 m/s 682 mmHg 59%
    19:00 +16°C° 0 mm 0 m/s 683 mmHg 62%
    20:00 +15°C° 0 mm 0 m/s 683 mmHg 65%
    21:00 +14°C° 0 mm 0 m/s 684 mmHg 67%
    22:00 +14°C° 0 mm 1 m/s 684 mmHg 70%
    23:00 +14°C° 0 mm 1 m/s 684 mmHg 72%

    20 Februarie, Miercuri

    Timp Temperatura Precipitaţii Vânt Presiune Umiditate
    00:00 +13°C° 0 mm 1 m/s 684 mmHg 75%
    01:00 +12°C° 0 mm 1 m/s 683 mmHg 76%
    02:00 +12°C° 0 mm 1 m/s 683 mmHg 76%
    03:00 +12°C° 0 mm 1 m/s 682 mmHg 77%
    04:00 +11°C° 0 mm 1 m/s 683 mmHg 77%
    05:00 +11°C° 0 mm 1 m/s 683 mmHg 76%
    06:00 +11°C° 0 mm 1 m/s 683 mmHg 76%
    07:00 +15°C° 0 mm 1 m/s 684 mmHg 65%
    08:00 +19°C° 0 mm 1 m/s 685 mmHg 54%
    09:00 +21°C° 0 mm 0 m/s 687 mmHg 43%
    10:00 +24°C° 0 mm 1 m/s 686 mmHg 38%
    11:00 +25°C° 0 mm 1 m/s 686 mmHg 34%
    12:00 +27°C° 0 mm 2 m/s 686 mmHg 30%
    13:00 +27°C° 0 mm 2 m/s 685 mmHg 30%
    14:00 +27°C° 0 mm 2 m/s 685 mmHg 31%
    15:00 +27°C° 0 mm 2 m/s 684 mmHg 31%
    16:00 +24°C° 0 mm 1 m/s 684 mmHg 39%
    17:00 +22°C° 0 mm 1 m/s 683 mmHg 48%
    18:00 +17°C° 0 mm 0 m/s 683 mmHg 56%
    19:00 +16°C° 0 mm 0 m/s 684 mmHg 59%
    20:00 +15°C° 0 mm 0 m/s 684 mmHg 61%
    21:00 +14°C° 0 mm 0 m/s 685 mmHg 64%
    22:00 +14°C° 0 mm 1 m/s 685 mmHg 66%
    23:00 +14°C° 0 mm 1 m/s 685 mmHg 67%

    21 Februarie, Joi

    Timp Temperatura Precipitaţii Vânt Presiune Umiditate
    00:00 +13°C° 0 mm 1 m/s 685 mmHg 69%
    01:00 +13°C° 0 mm 1 m/s 685 mmHg 70%
    02:00 +13°C° 0 mm 1 m/s 684 mmHg 70%
    03:00 +12°C° 0 mm 1 m/s 684 mmHg 70%
    04:00 +12°C° 0 mm 1 m/s 684 mmHg 71%
    05:00 +12°C° 0 mm 1 m/s 684 mmHg 71%
    06:00 +12°C° 0 mm 1 m/s 684 mmHg 71%
    07:00 +16°C° 0 mm 1 m/s 685 mmHg 61%
    08:00 +18°C° 0 mm 0 m/s 686 mmHg 50%
    09:00 +22°C° 0 mm 0 m/s 688 mmHg 39%
    10:00 +25°C° 0 mm 1 m/s 687 mmHg 35%
    11:00 +27°C° 0 mm 1 m/s 687 mmHg 30%
    12:00 +28°C° 0 mm 1 m/s 687 mmHg 26%
    13:00 +28°C° 0 mm 1 m/s 686 mmHg 26%
    14:00 +28°C° 0 mm 2 m/s 685 mmHg 27%
    15:00 +28°C° 0 mm 2 m/s 684 mmHg 28%
    16:00 +25°C° 0 mm 1 m/s 684 mmHg 36%
    17:00 +20°C° 0 mm 0 m/s 683 mmHg 44%
    18:00 +18°C° 0 mm 0 m/s 683 mmHg 52%
    19:00 +17°C° 0 mm 0 m/s 683 mmHg 55%
    20:00 +16°C° 0 mm 0 m/s 683 mmHg 58%
    21:00 +14°C° 0 mm 0 m/s 684 mmHg 61%
    22:00 +14°C° 0 mm 0 m/s 683 mmHg 64%
    23:00 +14°C° 0 mm 1 m/s 683 mmHg 66%

    22 Februarie, Vineri

    Timp Temperatura Precipitaţii Vânt Presiune Umiditate
    00:00 +14°C° 0 mm 1 m/s 683 mmHg 68%
    01:00 +13°C° 0 mm 1 m/s 682 mmHg 70%
    02:00 +13°C° 0 mm 1 m/s 682 mmHg 71%
    03:00 +13°C° 0 mm 1 m/s 681 mmHg 72%
    04:00 +13°C° 0 mm 1 m/s 681 mmHg 72%
    05:00 +12°C° 0 mm 1 m/s 681 mmHg 72%
    06:00 +12°C° 0 mm 1 m/s 681 mmHg 72%
    07:00 +16°C° 0 mm 1 m/s 683 mmHg 61%
    08:00 +20°C° 0 mm 1 m/s 684 mmHg 50%
    09:00 +22°C° 0 mm 0 m/s 685 mmHg 39%
    10:00 +26°C° 0 mm 1 m/s 684 mmHg 35%
    11:00 +27°C° 0 mm 1 m/s 684 mmHg 31%
    12:00 +29°C° 0 mm 2 m/s 684 mmHg 27%
    13:00 +29°C° 0 mm 2 m/s 683 mmHg 27%
    14:00 +29°C° 0 mm 2 m/s 683 mmHg 27%
    15:00 +29°C° 0 mm 2 m/s 682 mmHg 28%
    16:00 +26°C° 0 mm 1 m/s 682 mmHg 36%
    17:00 +23°C° 0 mm 1 m/s 681 mmHg 45%
    18:00 +18°C° 0 mm 0 m/s 681 mmHg 53%
    19:00 +17°C° 0 mm 0 m/s 681 mmHg 57%
    20:00 +16°C° 0 mm 0 m/s 682 mmHg 61%
    21:00 +15°C° 0 mm 0 m/s 682 mmHg 65%
    22:00 +15°C° 0 mm 1 m/s 682 mmHg 68%
    23:00 +15°C° 0 mm 1 m/s 682 mmHg 70%
    Arată mai mult